PDT,Max TemperatureF,Mean TemperatureF,Min TemperatureF,Max Dew PointF,MeanDew PointF,Min DewpointF,Max Humidity, Mean Humidity, Min Humidity, Max Sea Level PressureIn, Mean Sea Level PressureIn, Min Sea Level PressureIn, Max VisibilityMiles, Mean VisibilityMiles, Min VisibilityMiles, Max Wind SpeedMPH, Mean Wind SpeedMPH, Max Gust SpeedMPH,PrecipitationIn, CloudCover, Events, WindDirDegrees
2013-10-1,78,66,53,53,46,40,78,54,29,30.00,29.94,29.90,10,10,10,10,3,15,0.00,0,,223
2013-10-2,80,66,52,49,43,34,83,53,23,29.99,29.93,29.90,10,10,10,10,3,14,0.00,0,,276
2013-10-3,76,66,55,36,31,25,47,32,16,30.04,29.98,29.91,10,10,10,31,16,40,0.00,0,,333
2013-10-4,84,71,58,32,28,22,33,22,10,30.10,30.04,29.99,10,10,10,24,17,33,0.00,0,,337
2013-10-5,84,65,46,43,32,22,52,32,12,30.22,30.16,30.11,10,10,2,8,3,13,0.00,0,,337
2013-10-6,84,65,45,46,39,27,86,50,13,30.15,30.07,29.99,10,10,10,7,1,9,0.00,0,,332
2013-10-7,85,67,48,45,38,27,80,47,13,29.99,29.92,29.84,10,10,10,8,1,10,0.00,0,,262
2013-10-8,79,66,53,43,37,30,71,44,17,29.89,29.80,29.66,10,10,10,15,5,18,0.00,0,,330
2013-10-9,77,63,48,41,36,34,71,46,21,29.74,29.64,29.59,10,10,10,18,6,28,0.00,1,,309
2013-10-10,74,63,51,46,42,37,71,49,27,29.98,29.88,29.75,10,10,10,13,4,17,0.00,0,,165
2013-10-11,76,63,49,46,44,41,83,56,29,30.07,30.00,29.95,10,10,9,9,2,13,0.00,0,,205
2013-10-12,76,62,47,47,44,39,86,57,27,30.00,29.93,29.85,10,10,6,10,2,15,0.00,0,,196
2013-10-13,77,65,52,45,39,33,71,46,21,30.04,29.97,29.89,10,10,10,17,6,24,0.00,0,,328
2013-10-14,79,62,44,42,37,30,76,47,18,30.13,30.05,30.00,10,10,10,12,3,15,0.00,0,,327
2013-10-15,83,65,46,41,34,28,71,43,14,30.06,30.00,29.94,10,10,10,16,4,20,0.00,0,,325
2013-10-16,81,63,45,45,38,31,76,47,17,30.11,30.05,29.99,10,10,10,6,1,8,0.00,0,,291
2013-10-17,82,64,45,44,39,30,82,49,15,30.09,30.02,29.95,10,10,9,9,1,22,0.00,0,,322
2013-10-18,82,63,44,45,40,34,83,50,17,30.06,30.00,29.96,10,10,10,6,0,8,0.00,0,,136
2013-10-19,85,66,47,47,42,35,80,49,17,30.09,30.03,29.98,10,10,9,8,1,10,0.00,0,,353
2013-10-20,84,65,45,45,41,34,86,52,17,30.01,29.95,29.88,10,10,8,7,1,14,0.00,0,,221
2013-10-21,82,65,47,49,44,37,80,51,21,29.99,29.94,29.89,10,10,10,5,1,7,0.00,0,,174
2013-10-22,85,66,47,48,45,39,86,53,20,30.02,29.95,29.89,10,10,6,9,1,16,0.00,0,,358
2013-10-23,84,65,45,47,43,33,93,55,16,29.95,29.90,29.84,10,9,5,9,2,12,0.00,0,,237
2013-10-24,70,59,48,47,46,44,93,67,40,30.05,29.98,29.91,10,10,7,13,5,17,0.00,0,,188
2013-10-25,78,61,44,48,45,40,93,60,27,30.17,30.10,30.06,10,10,4,9,3,12,0.00,0,,307
2013-10-26,81,63,45,48,44,40,86,55,23,30.15,30.07,29.99,10,10,7,9,1,12,0.00,0,,326
2013-10-27,67,57,47,47,45,42,86,67,48,29.99,29.80,29.58,10,10,9,25,7,36,0.00,0,,199
2013-10-28,67,57,46,44,41,36,86,60,34,29.85,29.71,29.62,10,10,10,13,5,15,0.00,3,,187
2013-10-29,65,58,51,46,44,42,71,58,44,30.04,29.97,29.87,10,10,2,9,3,12,0.00,4,,204
2013-10-30,69,56,42,46,43,41,100,70,39,30.16,30.10,30.05,10,8,2,10,1,16,0.00,0,,320
2013-10-31,71,56,41,45,43,40,100,68,36,30.19,30.12,30.07,10,10,7,7,0,10,0.00,0,,200